Find KUIPER-00364

NORAD ID: 68867 Int'l Des: 2026-095D Owner: kuiper Country: USA Constellation: kuiper operational
LEOCIRCULAR

实时位置

正在加载3D地球...

关于 KUIPER-00364

正在加载描述...

即将过境

Passes for default location (London). Set your location on the main map for personalized predictions.

高度历史

Loading altitude history...

两行轨道根数

1 68867U 26095D 26120.66670139 -.00010216 00000-0 -26230-3 0 9994
2 68867 51.8797 112.1523 0003965 104.6015 75.2509 15.37605824 1302
Epoch: Apr 30, 2026 • Age: 32 hours

当前状态

高度 465.7 km
速度 7.63 km/s
星下点 -32.60°S, 141.01°W
类型 internet

Most Searched